Location: Sungai Bunut
(2.6333°N, 113.7333°E)
Time: 17:27:51
(UTC+00:00)

Vanguard 3 - Pass Details

Date: 12 December 2023
Orbit: 508 x 3239 km, 33.4° (Epoch: 28 February)

Event Time Altitude Azimuth Distance (km) Brightness Sun altitude
Rises 10:04:32 0° 249° (WSW) 6,833 15.4 2.2°
Reaches altitude 10° 10:09:05 10° 254° (WSW) 5,999 13.8 1.2°
Maximum altitude 10:27:55 52° 325° (NW) 3,646 10.6 -3.2°
Drops below altitude 10° 10:43:57 10° 38° (NE) 5,146 10.7 -6.9°
Enters shadow 10:46:32 - 42° (NE) 5,637 10.9 -7.4°
Sets 10:47:34 0° 44° (NE) 5,842 - -7.7°
